Liberia, Costa Rica

7:24 AM CST on May 27, 2017 (GMT -0600)
Daniel Oduber Quiros International

Weather History for MRLB - October, 2014

Change the Weather History Date:

Saturday, October 25, 2014

  Actual Average Record
Temperature  
Mean Temperature 80 °F -  
Max Temperature 88 °F 85 °F 93 °F (2000)
Min Temperature 72 °F 72 °F 70 °F (2016)
Cooling Degree Days 15    
Growing Degree Days 30 (Base 50)    
Moisture  
Dew Point 74 °F    
Average Humidity 76    
Maximum Humidity 97    
Minimum Humidity 52    
Precipitation  
Precipitation 0.00 in - - ()
Sea Level Pressure  
Sea Level Pressure 29.87 in    
Wind  
Wind Speed 3 mph ()    
Max Wind Speed 13 mph    
Max Gust Speed -    
Visibility 7.7 miles    
Events Thunderstorm    
Averages and records for this station are not official NWS values.
T = Trace of Precipitation, MM = Missing Value Source: Averaged Metar Reports

Daily Weather History Graph

Daily Weather History Graph

Search for Another Location

Airport or City:

Trip Planner

Search our weather history database for the weather conditions in past years. The results will help you decide how hot, cold, wet, or windy it might be!

Date:

Astronomy

Oct. 25, 2014 Rise Set
Actual Time 5:32 AM CST 5:20 PM CST
Civil Twilight 5:10 AM CST 5:41 PM CST
Nautical Twilight 4:45 AM CST 6:06 PM CST
Astronomical Twilight 4:20 AM CST 6:31 PM CST
Moon 6:58 AM CST (10/25) 6:57 PM CST (10/25)
Length of Visible Light 12h 31m
Length of Day
11h 48m
Waxing Crescent, 4% of the Moon is Illuminated
Oct 25
Waxing Crescent
Oct 30
First Quarter
Nov 6
Full
Nov 14
Last Quarter
Nov 22
New

Hourly Weather History & Observations

Time (CST) Temp. Heat Index Dew Point Humidity Pressure Visibility Wind Dir Wind Speed Gust Speed Precip Events Conditions
6:00 AM 73 °F - 72 °F 97% 29.91 in 12 mi Calm Calm - -  
6:00 AM 73.4 °F - 71.6 °F 94% 29.89 in 6.2 mi Calm Calm - N/A   Mostly Cloudy
7:00 AM 75.2 °F - 73.4 °F 94% 29.90 in 6.2 mi Calm Calm - N/A   Scattered Clouds
8:00 AM 78.8 °F - 73.4 °F 83% 29.90 in 6.2 mi East 2.3 mph - N/A   Scattered Clouds
9:00 AM 83 °F - 73 °F 65% 29.94 in 12 mi Calm Calm - -  
9:00 AM 82.4 °F 88.2 °F 73.4 °F 74% 29.91 in 6.2 mi Calm Calm - N/A   Scattered Clouds
10:00 AM 86.0 °F 93.4 °F 73.4 °F 66% 29.89 in 6.2 mi West 3.5 mph - N/A   Scattered Clouds
11:00 AM 87.8 °F 95.6 °F 73.4 °F 62% 29.87 in 6.2 mi West 5.8 mph - N/A   Scattered Clouds
12:00 PM 88 °F - 73 °F 52% 29.90 in 12 mi West 8.1 mph - -   Overcast
12:00 PM 87.8 °F 95.6 °F 73.4 °F 62% 29.86 in 6.2 mi West 8.1 mph - N/A   Mostly Cloudy
1:00 PM 86.0 °F 95.1 °F 75.2 °F 70% 29.84 in 6.2 mi West 10.4 mph - N/A   Mostly Cloudy
2:00 PM 86.0 °F 95.1 °F 75.2 °F 70% 29.80 in 6.2 mi West 12.7 mph - N/A   Mostly Cloudy
3:00 PM 83 °F - 76 °F 74% 29.84 in 12 mi West 9.2 mph - -   Overcast
3:00 PM 84.2 °F 92.3 °F 75.2 °F 74% 29.81 in 6.2 mi West 9.2 mph - N/A Thunderstorm Scattered Clouds
4:00 PM 84.2 °F 92.3 °F 75.2 °F 74% 29.79 in 6.2 mi West 9.2 mph - N/A   Scattered Clouds
5:00 PM 82.4 °F 89.5 °F 75.2 °F 79% 29.82 in 6.2 mi West 6.9 mph - N/A   Mostly Cloudy
6:00 PM 81 °F - 75 °F 78% 29.86 in 12 mi West 3.5 mph - -   Overcast
6:00 PM 80.6 °F 86.2 °F 75.2 °F 84% 29.83 in 6.2 mi West 3.5 mph - N/A   Mostly Cloudy
7:00 PM 78.8 °F - 75.2 °F 89% 29.86 in 6.2 mi NNW 3.5 mph - N/A   Scattered Clouds
8:00 PM 78.8 °F - 75.2 °F 89% 29.88 in 6.2 mi North 3.5 mph - N/A   Scattered Clouds